Regional Weather Roundup
Issued by NWS

Home | Current Version | Previous Version | Graphics & Text | Print | Product List | Glossary On
Versions: 1 2 3 4 5 6 7 8 9 10 11 12 13 14 15 16 17 18 19 20 21 22 23 24 25 26 27 28 29 30 31 32 33 34 35 36 37 38 39 40 41 42 43 44 45 46 47 48 49 50
000
ASUS43 KIND 031809
RWRIN

WEATHER ROUNDUP FOR INDIANA
NATIONAL WEATHER SERVICE INDIANAPOLIS IN
100 PM EST SAT DEC 03 2016

NOTE: "FAIR" INDICATES FEW OR NO CLOUDS BELOW 12,000 FEET WITH NO
SIGNIFICANT WEATHER AND/OR OBSTRUCTIONS TO VISIBILITY.

* - STATION DOES NOT REPORT WEATHER SUCH AS PRECIPITATION OR FOG.

+ - STATION NOT QUALITY CONTROLLED BY THE NATIONAL WEATHER SERVICE.
    USE DATA WITH CAUTION...ESPECIALLY DEWPOINT AND RELATIVE
    HUMIDITY OBSERVATIONS.

INZ001>003-010>013-019-020-031900-
NORTHWEST INDIANA

CITY           SKY/WX    TMP DP  RH WIND       PRES   REMARKS
GARY /AIRPORT/ CLOUDY    36  23  60 W8        30.37R
KNOX *+        CLOUDY    36   9  32 W8        30.32F
LA PORTE +     CLOUDY    38  28  68 SW5       30.34R
6HR MIN TEMP:  33; 6HR MAX TEMP:  38;

MICHIGAN CITY+ CLOUDY    36  27  69 SW8       30.35R
MONTICELLO +   CLOUDY    35  22  59 CALM      30.34S
6HR MIN TEMP:  32; 6HR MAX TEMP:  35;

RENSSELAER +   CLOUDY    34  28  80 W5        30.36S WCI  30
VALPARAISO     CLOUDY    37  24  59 SW7       30.34R
6HR MIN TEMP:  32; 6HR MAX TEMP:  39;


$$

LMZ046-743>745-031900-
SOUTHERN LAKE MICHIGAN

STATION/POSITION TIME  TEMP    WIND        PRES    WAVE
                       AIR SEA DIR/SP/G            HT
                 (UTC) (F)     (DEG/KT/KT) (MB)    (FT)
BURNS HARBOR     1740   35     260/  8/ 11 1028.1R
MICHIGAN CITY    1740   35     250/  9/ 10   N/A

$$

INZ004-005-014>016-021>024-031900-
NORTH CENTRAL INDIANA

CITY           SKY/WX    TMP DP  RH WIND       PRES   REMARKS
ELKHART        CLOUDY    36  27  69 SW6       30.31S
GOSHEN         CLOUDY    36  26  67 SW8       30.33R
6HR MIN TEMP:  34; 6HR MAX TEMP:  37;

LOGANSPORT +   CLOUDY    34  27  75 CALM      30.35R
PERU/GRISSOM   CLOUDY    36  26  66 SW5       30.32F
6HR MIN TEMP:  34; 6HR MAX TEMP:  36;

ROCHESTER +    CLOUDY    37  28  70 SW3       30.33F
SOUTH BEND     CLOUDY    35  25  66 SW7       30.33R WCI  29
6HR MIN TEMP:  33; 6HR MAX TEMP:  35;

WARSAW +       CLOUDY    36  25  64 W3        30.32S

$$

INZ006>009-017-018-025>027-031900-
NORTHEAST INDIANA

CITY           SKY/WX    TMP DP  RH WIND       PRES   REMARKS
ANGOLA *+      CLOUDY    37  27  65 W6        30.30R
AUBURN +       CLOUDY    36  28  75 W7        30.32R
FORT WAYNE     CLOUDY    37  25  61 W6        30.31F
6HR MIN TEMP:  35; 6HR MAX TEMP:  37;

HUNTINGTON +   CLOUDY    36  24  63 SW6       30.32F
6HR MIN TEMP:  33; 6HR MAX TEMP:  36;

KENDALLVILLE + CLOUDY    36  27  69 SW7       30.31R

$$

INZ028-029-035-036-043>045-051>053-031900-
WEST CENTRAL INDIANA

CITY           SKY/WX    TMP DP  RH WIND       PRES   REMARKS
CRAWFORDSVL +  CLOUDY    35  28  76 W9        30.35S WCI  28
6HR MIN TEMP:  32; 6HR MAX TEMP:  35;

GREENCASTLE +  CLOUDY    37  30  75 W5        30.35F
LAFAYETTE      CLOUDY    36  27  69 W5        30.36R
6HR MIN TEMP:  31; 6HR MAX TEMP:  36;

TERRE HAUTE    CLOUDY    39  26  59 W6        30.38S
6HR MIN TEMP:  34; 6HR MAX TEMP:  39;


$$

INZ030>032-037>040-046>048-054>057-064-065-031900-
CENTRAL INDIANA

CITY           SKY/WX    TMP DP  RH WIND       PRES   REMARKS
ANDERSON       CLOUDY    37  28  70 SW6       30.33
CP ATTERBURY + CLOUDY    37  28  70 W6        30.36S
COLUMBUS       CLOUDY    39  30  70 NW7       30.35F
FRANKFORT +    CLOUDY    37  29  72 NW6       30.36R
6HR MIN TEMP:  35; 6HR MAX TEMP:  38;

GREENWOOD *+   CLOUDY    39  29  68 W6        30.35S
6HR MIN TEMP:  36; 6HR MAX TEMP:  39;

INDIANAPOLIS   CLOUDY    38  27  64 W9        30.34F
6HR MIN TEMP:  35; 6HR MAX TEMP:  39;

-EAGLE CREEK   CLOUDY    38  27  64 W9        30.34S
6HR MIN TEMP:  35; 6HR MAX TEMP:  39;

KOKOMO +       CLOUDY    37  27  67 SW5       30.34F
6HR MIN TEMP:  35; 6HR MAX TEMP:  37;

MARION +       CLOUDY    36  27  69 W6        30.34R
MT COMFORT *+  CLOUDY    37  28  70 W7        30.34S
SHELBYVILLE    CLOUDY    39  28  64 SW5       30.33S
6HR MIN TEMP:  37; 6HR MAX TEMP:  39;

ZIONSVILLE +   CLOUDY    35  27  74 W8        30.34S WCI  28
6HR MIN TEMP:  33; 6HR MAX TEMP:  36;


$$

INZ033-034-041-042-049-050-058-059-031900-
EAST CENTRAL INDIANA

CITY           SKY/WX    TMP DP  RH WIND       PRES   REMARKS
MUNCIE         NOT AVBL

$$

INZ060-061-067>069-081>083-085>088-031900-
SOUTHWEST INDIANA

CITY           SKY/WX    TMP DP  RH WIND       PRES   REMARKS
EVANSVILLE     MOSUNNY   45  29  53 E5        30.38F
6HR MIN TEMP:  32; 6HR MAX TEMP:  45;

HUNTINGBURG *+ CLOUDY    43  29  57 NE5       30.38S
6HR MIN TEMP:  37; 6HR MAX TEMP:  44;

WASHINGTON +   PTSUNNY   42  31  67 CALM      30.38S
6HR MIN TEMP:  37; 6HR MAX TEMP:  42;


$$

INZ062-063-066-070>080-084-089>092-031900-
SOUTH CENTRAL AND SOUTHEAST INDIANA

CITY           SKY/WX    TMP DP  RH WIND       PRES   REMARKS
BLOOMINGTON    NOT AVBL
MADISON *+     CLOUDY    41  27  56 NW5       30.36S
NORTH VERNON + CLOUDY    41  34  75 CALM      30.35F

$$




USA.gov is the U.S. government's official web portal to all federal, state and local government web resources and services.